| time (UTC) | temp C | wind direction | speed KPH | gust KPH | rain 1hr cm | rain 24hr cm | rain mn cm | humidity % | barometer mb |
| 20260506044532 | 7 | 0 | 0.0 | 1.6 | 0.00 | 0.00 | 0.00 | 81 | 1013.7 |
| 20260506043028 | 7 | 0 | 0.0 | 8.0 | 0.00 | 0.00 | 0.00 | 81 | 1013.6 |
| 20260506041528 | 7 | 0 | 0.0 | 8.0 | 0.00 | 0.00 | 0.00 | 81 | 1013.6 |
| 20260506040040 | 8 | 0 | 0.0 | 8.0 | 0.00 | 0.00 | 0.00 | 82 | 1013.6 |
| 20260506034526 | 8 | 0 | 0.0 | 9.7 | 0.00 | 0.00 | 0.00 | 83 | 1013.5 |
| 20260506033029 | 8 | 0 | 0.0 | 1.6 | 0.00 | 0.00 | 0.00 | 82 | 1013.4 |
| 20260506031528 | 8 | 0 | 0.0 | 8.0 | 0.00 | 0.00 | 0.00 | 82 | 1013.4 |
| 20260506030025 | 8 | 0 | 0.0 | 6.4 | 0.00 | 0.00 | 0.00 | 82 | 1013.5 |
| 20260506024536 | 8 | 0 | 0.0 | 4.8 | 0.00 | 0.00 | 0.00 | 82 | 1013.4 |
| 20260506023030 | 8 | 0 | 1.6 | 11.3 | 0.00 | 0.00 | 0.00 | 82 | 1013.5 |
| 20260506021542 | 8 | 0 | 0.0 | 3.2 | 0.00 | 0.00 | 0.00 | 82 | 1013.6 |
| 20260506020028 | 8 | 0 | 0.0 | 6.4 | 0.00 | 0.00 | 0.00 | 82 | 1013.6 |
| 20260506014528 | 8 | 0 | 0.0 | 9.7 | 0.00 | 0.00 | 0.00 | 81 | 1013.5 |
| 20260506013025 | 9 | 0 | 0.0 | 8.0 | 0.00 | 0.00 | 0.00 | 81 | 1013.6 |
| 20260506011529 | 9 | 0 | 0.0 | 8.0 | 0.00 | 0.00 | 0.00 | 80 | 1013.6 |
| 20260506010039 | 9 | 0 | 0.0 | 6.4 | 0.00 | 0.00 | 0.00 | 79 | 1013.7 |
| 20260506004528 | 10 | 0 | 0.0 | 6.4 | 0.00 | 0.00 | 0.00 | 78 | 1013.7 |
| 20260506003028 | 10 | 0 | 1.6 | 16.1 | 0.00 | 0.00 | 0.00 | 77 | 1013.7 |
| 20260506001530 | 10 | 0 | 1.6 | 12.9 | 0.00 | 0.00 | 0.00 | 77 | 1013.7 |
| 20260506000031 | 10 | 0 | 1.6 | 12.9 | 0.00 | 0.00 | 0.00 | 76 | 1013.7 |
| 20260505234539 | 10 | 89 | 3.2 | 16.1 | 0.00 | 0.00 | 0.00 | 76 | 1013.7 |
| 20260505233033 | 10 | 108 | 4.8 | 24.1 | 0.00 | 0.00 | 0.00 | 76 | 1013.7 |
| 20260505231531 | 11 | 71 | 3.2 | 16.1 | 0.00 | 0.00 | 0.00 | 75 | 1013.7 |
| 20260505230028 | 11 | 63 | 4.8 | 19.3 | 0.00 | 0.00 | 0.00 | 74 | 1013.7 |
| 20260505224531 | 11 | 80 | 3.2 | 11.3 | 0.00 | 0.00 | 0.00 | 74 | 1013.7 |
| 20260505223028 | 11 | 67 | 4.8 | 20.9 | 0.00 | 0.00 | 0.00 | 73 | 1013.7 |
| 20260505221528 | 11 | 86 | 3.2 | 14.5 | 0.00 | 0.00 | 0.00 | 72 | 1013.6 |
| 20260505220027 | 11 | 0 | 3.2 | 12.9 | 0.00 | 0.00 | 0.00 | 73 | 1013.5 |
| 20260505214536 | 12 | 0 | 1.6 | 14.5 | 0.00 | 0.00 | 0.00 | 73 | 1013.5 |
| 20260505213027 | 12 | 0 | 4.8 | 16.1 | 0.00 | 0.00 | 0.00 | 72 | 1013.5 |
| 20260505211539 | 12 | 98 | 1.6 | 17.7 | 0.00 | 0.00 | 0.00 | 72 | 1013.4 |
| 20260505210029 | 12 | 29 | 0.0 | 16.1 | 0.00 | 0.00 | 0.00 | 72 | 1013.3 |
| 20260505204530 | 12 | 0 | 0.0 | 6.4 | 0.00 | 0.00 | 0.00 | 71 | 1013.2 |
| 20260505203037 | 12 | 0 | 0.0 | 12.9 | 0.00 | 0.00 | 0.00 | 70 | 1013.2 |
| 20260505201528 | 12 | 0 | 0.0 | 11.3 | 0.00 | 0.00 | 0.00 | 70 | 1013.0 |
| 20260505200025 | 12 | 0 | 0.0 | 4.8 | 0.00 | 0.00 | 0.00 | 70 | 1013.0 |
| 20260505194528 | 12 | 0 | 0.0 | 9.7 | 0.00 | 0.00 | 0.00 | 69 | 1012.8 |
| 20260505193027 | 13 | 0 | 0.0 | 6.4 | 0.00 | 0.00 | 0.00 | 69 | 1012.7 |
| 20260505191528 | 13 | 79 | 1.6 | 19.3 | 0.00 | 0.00 | 0.00 | 70 | 1012.5 |
| 20260505190027 | 13 | 0 | 0.0 | 0.0 | 0.00 | 0.00 | 0.00 | 69 | 1012.5 |
| 20260505184542 | 13 | 0 | 0.0 | 1.6 | 0.00 | 0.00 | 0.00 | 69 | 1012.3 |
| 20260505183037 | 13 | 72 | 0.0 | 11.3 | 0.00 | 0.00 | 0.00 | 68 | 1012.4 |
| 20260505181530 | 13 | 0 | 0.0 | 8.0 | 0.00 | 0.00 | 0.00 | 68 | 1012.3 |
| 20260505180029 | 13 | 0 | 0.0 | 4.8 | 0.00 | 0.00 | 0.00 | 68 | 1012.4 |
| 20260505174529 | 13 | 0 | 0.0 | 8.0 | 0.00 | 0.00 | 0.00 | 68 | 1012.2 |
| 20260505173026 | 13 | 0 | 0.0 | 9.7 | 0.00 | 0.00 | 0.00 | 68 | 1012.4 |
| 20260505171528 | 14 | 0 | 0.0 | 1.6 | 0.00 | 0.00 | 0.00 | 68 | 1012.5 |
| 20260505170035 | 14 | 0 | 0.0 | 3.2 | 0.00 | 0.00 | 0.00 | 68 | 1012.4 |
| 20260505164534 | 14 | 0 | 0.0 | 8.0 | 0.00 | 0.00 | 0.00 | 67 | 1012.5 |
| 20260505163028 | 14 | 85 | 0.0 | 4.8 | 0.00 | 0.00 | 0.00 | 67 | 1012.5 |
| 20260505161526 | 14 | 90 | 0.0 | 9.7 | 0.00 | 0.00 | 0.00 | 66 | 1012.6 |
| 20260505153028 | 15 | 0 | 1.6 | 12.9 | 0.00 | 0.00 | 0.00 | 67 | 1012.6 |
| 20260505151535 | 15 | 0 | 1.6 | 9.7 | 0.00 | 0.00 | 0.00 | 68 | 1012.6 |
| 20260505124528 | 13 | 61 | 0.0 | 8.0 | 0.00 | 0.00 | 0.00 | 67 | 1013.3 |
| 20260505123026 | 14 | 0 | 3.2 | 9.7 | 0.00 | 0.00 | 0.00 | 66 | 1013.3 |
| 20260505121526 | 14 | 0 | 0.0 | 12.9 | 0.00 | 0.00 | 0.00 | 65 | 1013.3 |
| 20260505120029 | 15 | 66 | 4.8 | 12.9 | 0.00 | 0.00 | 0.00 | 66 | 1013.3 |
| 20260505114528 | 13 | 102 | 3.2 | 20.9 | 0.00 | 0.00 | 0.00 | 71 | 1013.4 |
| 20260505113039 | 13 | 0 | 3.2 | 16.1 | 0.00 | 0.00 | 0.00 | 71 | 1013.3 |
| 20260505111540 | 13 | 0 | 1.6 | 11.3 | 0.00 | 0.00 | 0.00 | 74 | 1013.5 |
| 20260505091526 | 12 | 73 | 1.6 | 11.3 | 0.00 | 0.00 | 0.00 | 79 | 1014.0 |
| 20260505090032 | 11 | 36 | 4.8 | 16.1 | 0.00 | 0.00 | 0.00 | 80 | 1013.8 |
| 20260505084530 | 11 | 64 | 3.2 | 12.9 | 0.00 | 0.00 | 0.00 | 80 | 1014.1 |
| 20260505083026 | 11 | 0 | 0.0 | 8.0 | 0.00 | 0.00 | 0.00 | 81 | 1014.1 |
| 20260505081530 | 11 | 69 | 4.8 | 14.5 | 0.00 | 0.00 | 0.00 | 82 | 1014.1 |
| 20260505080030 | 11 | 319 | 3.2 | 14.5 | 0.00 | 0.00 | 0.00 | 82 | 1014.1 |
| 20260505074526 | 11 | 0 | 3.2 | 11.3 | 0.00 | 0.00 | 0.00 | 85 | 1014.1 |
| 20260505073030 | 10 | 0 | 1.6 | 12.9 | 0.00 | 0.00 | 0.00 | 86 | 1014.1 |
| 20260505071529 | 10 | 69 | 1.6 | 11.3 | 0.00 | 0.00 | 0.00 | 86 | 1014.3 |
| 20260505070027 | 10 | 33 | 0.0 | 8.0 | 0.00 | 0.00 | 0.00 | 87 | 1014.3 |
| 20260505064527 | 10 | 34 | 1.6 | 12.9 | 0.00 | 0.00 | 0.00 | 87 | 1014.3 |
| 20260505063025 | 10 | 0 | 0.0 | 8.0 | 0.00 | 0.00 | 0.00 | 89 | 1014.2 |
| 20260505061529 | 10 | 0 | 0.0 | 4.8 | 0.00 | 0.00 | 0.00 | 90 | 1014.1 |
| 20260505060026 | 9 | 0 | 0.0 | 4.8 | 0.00 | 0.00 | 0.00 | 91 | 1014.1 |
| 20260505054541 | 9 | 0 | 0.0 | 1.6 | 0.00 | 0.00 | 0.00 | 91 | 1014.1 |
| 20260505053027 | 8 | 0 | 0.0 | 4.8 | 0.00 | 0.00 | 0.00 | 91 | 1014.1 |